Каинды

Киргизия     42°49′52″N   73°40′46″E
темп.,
°C
ветер,
м/с
пор.,
м/с
влажн.,
%
обл.,
%
осадки,
мм/ч
давл.,
гПа
погр.,
м
6 марта, сб
сб600:00−2ююв126321 0.0 102827
03:00−1ююв23510 0.0 102637
06:000ююв234517 0.0 102432
09:00+1юв1254100 0.0 102148
12:00+3ссв0178100 0.0 1017144
15:00+5ссв117636 0.0 1013249
18:00+4зюз227267 0.0 101224
21:00+2зюз1273100 0.0 101523
7 марта, вс
вс700:00+3зюз1269100 0.0 101522
03:00+1юз1172100 0.0 101623
06:00+1ююз1169100 0.0 101822
09:00+2в1275100 0.0 102030
12:00+2ссз0183100 0.2 1020251
15:00+2юз1191100 0.4 1019218
18:00+2ю2290100 0.6 1020116
21:00+1ю1183100 0.1 102122
8 марта, пн
пн800:000вюв118296 0.1 102122
03:000ююв118486 0.0 102023
06:000ююв117474 0.0 102122
09:00+2ююв11670 0.0 102143
12:00+5ююз127823 0.0 1020120
15:00+6сз1278100 0.0 1020456
18:00+5зсз1275100 0.0 102157
21:00+3юв1173100 0.0 102322
9 марта, вт
вт900:00+3ююв2274100 0.0 102330
03:00+2ююв1173100 0.0 102322
06:00+2ююв1172100 0.0 102223
09:00+4юв1164100 0.0 102138
12:00+6всв127898 0.0 1017169
15:00+8ссв117195 0.0 1014286
18:00+7ю227298 0.0 101347
21:00+6ю2259100 0.0 101324
10 марта, ср
ср1000:00+6ю2249100 0.0 101225
03:00+7ююз334999 0.0 101030
06:00+6зюз3452100 0.0 101149
09:00+6ююз1261100 0.0 101127
12:00+9всв1170100 0.0 1009204
15:00+12с2460100 0.0 1010785
18:00+5сз6994100 2.6 1013569
21:00+2сз2595100 4.3 1019425